Weather History for KD50 - April, 2013

Change the Weather History Date:

Friday, April 5, 2013

  Actual Average (KISN) Record (KISN)
Temperature  
Mean Temperature 29 °F 39 °F  
Max Temperature 35 °F 52 °F 79 °F (1991)
Min Temperature 23 °F 26 °F -3 °F (1920)
Degree Days  
Heating Degree Days 36 26  
Month to date heating degree days 135  
Since 1 July heating degree days 8010  
Cooling Degree Days 0 0  
Month to date cooling degree days 0  
Year to date cooling degree days 0  
Moisture  
Dew Point 26 °F    
Average Humidity 86    
Maximum Humidity 100    
Minimum Humidity 75    
Precipitation  
Precipitation 0.00 in 0.03 in 0.95 in (1929)
Month to date precipitation 0.13  
Year to date precipitation 1.82  
Sea Level Pressure  
Sea Level Pressure 29.80 in    
Wind  
Wind Speed 15 mph (SE)    
Max Wind Speed 26 mph    
Max Gust Speed 32 mph    
Visibility 10 miles    
Events Rain , Snow    
T = Trace of Precipitation, MM = Missing Value Source: NWS Daily Summary

Daily Weather History Graph

Daily Weather History Graph

Search for Another Location

Airport or City:

Trip Planner

Search our weather history database for the weather conditions in past years. The results will help you decide how hot, cold, wet, or windy it might be!

Date:

Astronomy

Apr. 05, 2013 Rise Set
Actual Time 7:21 AM CDT 8:30 PM CDT
Civil Twilight 6:49 AM CDT 9:03 PM CDT
Nautical Twilight 6:10 AM CDT 9:42 PM CDT
Astronomical Twilight 5:28 AM CDT 10:24 PM CDT
Moon 4:54 AM CDT (4/5) 3:35 PM CDT (4/5)
Length of Visible Light 14h 13m
Length of Day
13h 08m
Waning Crescent, 23% of the Moon is Illuminated
Apr 5
Waning Crescent
Apr 10
New
Apr 18
First Quarter
Apr 25
Full
May 2
Last Quarter

Hourly Weather History & Observations

Time (CDT) Temp. Windchill Dew Point Humidity Pressure Visibility Wind Dir Wind Speed Gust Speed Precip Events Conditions
12:15 AM 23.0 °F 10.6 °F 19.4 °F 86% 30.09 in 10.0 mi ESE 13.8 mph - N/A   Mostly Cloudy
12:35 AM 23.0 °F 11.1 °F 19.4 °F 86% 30.09 in 10.0 mi SE 12.7 mph - N/A   Overcast
12:55 AM 24.8 °F 12.4 °F 19.4 °F 80% 30.08 in 10.0 mi ESE 15.0 mph - N/A   Mostly Cloudy
1:15 AM 24.8 °F 11.9 °F 19.4 °F 80% 30.07 in 10.0 mi ESE 16.1 mph - N/A   Partly Cloudy
1:35 AM 24.8 °F 12.9 °F 19.4 °F 80% 30.06 in 10.0 mi ESE 13.8 mph - N/A   Mostly Cloudy
1:55 AM 24.8 °F 14.0 °F 19.4 °F 80% 30.06 in 10.0 mi East 11.5 mph - N/A   Overcast
2:15 AM 24.8 °F 14.0 °F 21.2 °F 86% 30.05 in 10.0 mi East 11.5 mph - N/A   Overcast
2:35 AM 24.8 °F 15.3 °F 21.2 °F 86% 30.03 in 10.0 mi East 9.2 mph - N/A   Overcast
2:55 AM 26.6 °F 16.2 °F 23.0 °F 86% 30.02 in 10.0 mi SE 11.5 mph - N/A   Overcast
3:15 AM 26.6 °F 14.3 °F 23.0 °F 86% 30.01 in 10.0 mi SE 16.1 mph 24.2 mph N/A   Overcast
3:35 AM 26.6 °F 15.7 °F 23.0 °F 86% 30.00 in 10.0 mi ESE 12.7 mph - N/A   Mostly Cloudy
3:55 AM 26.6 °F 15.7 °F 23.0 °F 86% 29.99 in 10.0 mi SSE 12.7 mph 18.4 mph N/A   Clear
4:15 AM 26.6 °F 14.7 °F 23.0 °F 86% 29.97 in 10.0 mi SSE 15.0 mph 21.9 mph N/A   Partly Cloudy
4:35 AM 26.6 °F 13.1 °F 24.8 °F 93% 29.96 in 10.0 mi SSE 19.6 mph 23.0 mph N/A   Mostly Cloudy
4:55 AM 28.4 °F 15.8 °F 24.8 °F 86% 29.95 in 10.0 mi SSE 18.4 mph 26.5 mph N/A   Overcast
5:15 AM 26.6 °F 12.7 °F 24.8 °F 93% 29.94 in 10.0 mi SSE 20.7 mph 27.6 mph N/A   Overcast
5:35 AM 26.6 °F 11.7 °F 24.8 °F 93% 29.93 in 10.0 mi SSE 24.2 mph 29.9 mph N/A   Mostly Cloudy
5:55 AM 26.6 °F 13.1 °F 24.8 °F 93% 29.92 in 10.0 mi SSE 19.6 mph 24.2 mph N/A   Mostly Cloudy
6:15 AM 26.6 °F 12.4 °F 24.8 °F 93% 29.91 in 10.0 mi SSE 21.9 mph 27.6 mph N/A   Overcast
6:35 AM 28.4 °F 15.1 °F 24.8 °F 86% 29.89 in 10.0 mi SSE 20.7 mph 27.6 mph N/A   Overcast
6:55 AM 28.4 °F 14.1 °F 24.8 °F 86% 29.87 in 10.0 mi SE 24.2 mph 28.8 mph N/A   Overcast
7:15 AM 28.4 °F 14.7 °F 24.8 °F 86% 29.86 in 10.0 mi SE 21.9 mph 27.6 mph N/A   Overcast
7:35 AM 28.4 °F 15.4 °F 24.8 °F 86% 29.86 in 10.0 mi SE 19.6 mph 25.3 mph N/A   Mostly Cloudy
7:55 AM 28.4 °F 16.6 °F 24.8 °F 86% 29.86 in 10.0 mi SE 16.1 mph - N/A   Overcast
8:15 AM 28.4 °F 15.8 °F 24.8 °F 86% 29.86 in 10.0 mi SE 18.4 mph 24.2 mph N/A   Overcast
8:35 AM 28.4 °F 14.4 °F 24.8 °F 86% 29.86 in 10.0 mi SSE 23.0 mph 26.5 mph N/A   Overcast
8:55 AM 28.4 °F 13.8 °F 24.8 °F 86% 29.84 in 7.0 mi SE 25.3 mph - N/A Snow Light Snow
9:15 AM 28.4 °F 14.7 °F 24.8 °F 86% 29.84 in 10.0 mi SE 21.9 mph 26.5 mph N/A   Overcast
9:35 AM 28.4 °F 14.4 °F 24.8 °F 86% 29.84 in 10.0 mi SE 23.0 mph 29.9 mph N/A   Overcast
9:55 AM 28.4 °F 14.4 °F 26.6 °F 93% 29.83 in 10.0 mi SE 23.0 mph 28.8 mph N/A   Overcast
10:15 AM 28.4 °F 13.8 °F 24.8 °F 86% 29.82 in 10.0 mi SE 25.3 mph 29.9 mph N/A   Overcast
10:35 AM 28.4 °F 13.5 °F 26.6 °F 93% 29.80 in 10.0 mi SE 26.5 mph 32.2 mph N/A   Overcast
10:55 AM 28.4 °F 14.7 °F 26.6 °F 93% 29.80 in 9.0 mi SE 21.9 mph 29.9 mph N/A Rain Light Freezing Rain
11:15 AM 30.2 °F 15.9 °F 26.6 °F 86% 29.79 in 10.0 mi SE 26.5 mph 32.2 mph N/A   Mostly Cloudy
11:35 AM 30.2 °F 17.4 °F 26.6 °F 86% 29.79 in 10.0 mi SE 20.7 mph - N/A   Mostly Cloudy
11:55 AM 32.0 °F 18.9 °F 26.6 °F 80% 29.78 in 10.0 mi SE 24.2 mph - N/A   Overcast
12:15 PM 32.0 °F 18.6 °F 26.6 °F 80% 29.78 in 8.0 mi SE 25.3 mph 29.9 mph N/A   Mostly Cloudy
12:35 PM 32.0 °F 19.8 °F 26.6 °F 80% 29.77 in 10.0 mi SE 20.7 mph 29.9 mph N/A   Overcast
12:55 PM 32.0 °F 18.9 °F 26.6 °F 80% 29.74 in 10.0 mi SE 24.2 mph 32.2 mph N/A   Mostly Cloudy
1:15 PM 32.0 °F 19.8 °F 26.6 °F 80% 29.74 in 10.0 mi SE 20.7 mph - N/A   Overcast
1:35 PM 32.0 °F 20.1 °F 28.4 °F 87% 29.73 in 10.0 mi SSE 19.6 mph 26.5 mph N/A   Scattered Clouds
1:55 PM 32.0 °F 21.6 °F 28.4 °F 87% 29.73 in 10.0 mi SE 15.0 mph - N/A   Scattered Clouds
2:15 PM 32.0 °F 21.6 °F 28.4 °F 87% 29.73 in 10.0 mi SSE 15.0 mph - N/A   Partly Cloudy
2:35 PM 33.8 °F 23.2 °F 28.4 °F 81% 29.71 in 10.0 mi SSE 17.3 mph - N/A   Scattered Clouds
2:55 PM 33.8 °F 22.8 °F 26.6 °F 75% 29.70 in 10.0 mi SSE 18.4 mph 21.9 mph N/A   Mostly Cloudy
3:15 PM 33.8 °F 23.5 °F 28.4 °F 81% 29.69 in 10.0 mi SE 16.1 mph - N/A   Mostly Cloudy
3:35 PM 33.8 °F 24.3 °F 28.4 °F 81% 29.69 in 10.0 mi SE 13.8 mph - N/A   Mostly Cloudy
3:55 PM 35.6 °F 27.5 °F 28.4 °F 75% 29.68 in 10.0 mi SE 11.5 mph - N/A   Scattered Clouds
4:15 PM 35.6 °F 27.5 °F 28.4 °F 75% 29.68 in 10.0 mi SE 11.5 mph - N/A   Clear
4:35 PM 35.6 °F 28.0 °F 28.4 °F 75% 29.67 in 10.0 mi ESE 10.4 mph - N/A   Clear
4:55 PM 33.8 °F 25.3 °F 28.4 °F 81% 29.67 in 10.0 mi ESE 11.5 mph - N/A   Clear
5:15 PM 33.8 °F 25.8 °F 28.4 °F 81% 29.66 in 10.0 mi ESE 10.4 mph - N/A   Clear
5:35 PM 33.8 °F 25.8 °F 28.4 °F 81% 29.66 in 10.0 mi ESE 10.4 mph - N/A   Clear
5:55 PM 33.8 °F 25.3 °F 28.4 °F 81% 29.66 in 10.0 mi East 11.5 mph - N/A   Clear
6:15 PM 32.0 °F 22.5 °F 28.4 °F 87% 29.66 in 10.0 mi East 12.7 mph - N/A   Clear
6:35 PM 32.0 °F 22.1 °F 28.4 °F 87% 29.66 in 10.0 mi ESE 13.8 mph - N/A   Clear
6:55 PM 32.0 °F 23.0 °F 28.4 °F 87% 29.66 in 10.0 mi ESE 11.5 mph - N/A   Clear
7:15 PM 32.0 °F 23.0 °F 28.4 °F 87% 29.66 in 10.0 mi ESE 11.5 mph - N/A   Clear
7:35 PM 32.0 °F 23.6 °F 28.4 °F 87% 29.66 in 10.0 mi ESE 10.4 mph - N/A   Clear
7:55 PM 32.0 °F 23.6 °F 28.4 °F 87% 29.65 in 10.0 mi ESE 10.4 mph - N/A   Clear
8:15 PM 32.0 °F 23.0 °F 28.4 °F 87% 29.64 in 10.0 mi ESE 11.5 mph - N/A   Clear
8:35 PM 32.0 °F 24.2 °F 28.4 °F 87% 29.64 in 10.0 mi ESE 9.2 mph - N/A   Clear
8:55 PM 32.0 °F 25.6 °F 28.4 °F 87% 29.64 in 10.0 mi ESE 6.9 mph - N/A   Clear
9:15 PM 28.4 °F 22.2 °F 28.4 °F 100% 29.64 in 10.0 mi East 5.8 mph - N/A   Clear
9:35 PM 28.4 °F 22.2 °F 28.4 °F 100% 29.64 in 10.0 mi East 5.8 mph - N/A   Clear
9:55 PM 28.4 °F 23.3 °F 28.4 °F 100% 29.64 in 10.0 mi East 4.6 mph - N/A   Clear
10:15 PM 28.4 °F 24.6 °F 26.6 °F 93% 29.64 in 10.0 mi East 3.5 mph - N/A   Clear
10:35 PM 28.4 °F 24.6 °F 28.4 °F 100% 29.65 in 10.0 mi SSE 3.5 mph - N/A   Clear
10:55 PM 30.2 °F 26.7 °F 28.4 °F 93% 29.64 in 10.0 mi SSE 3.5 mph - N/A   Clear
11:15 PM 32.0 °F - 28.4 °F 87% 29.64 in 10.0 mi Calm Calm - N/A   Clear
11:35 PM 30.2 °F - 28.4 °F 93% 29.64 in 10.0 mi Calm Calm - N/A   Clear
11:55 PM 28.4 °F - 28.4 °F 100% 29.63 in 10.0 mi Calm Calm - N/A   Clear